CW0987 Weather Reports


time (UTC)temp
F
wind
direction
speed
knots
gust
knots
rain 1hr
in
rain 24hr
in
rain mn
in
humidity
%
barometer
mb
20260508033545 63 234 4.3 12.2 0.00 0.00 0.00 78 1013.5
20260508033045 64 186 3.5 12.2 0.00 0.00 0.00 78 1013.4
20260508032545 63 208 4.3 12.2 0.00 0.00 0.00 78 1013.4
20260508032044 64 211 3.5 13.0 0.00 0.00 0.00 78 1013.3
20260508031544 64 257 7.0 13.0 0.00 0.00 0.00 77 1013.2
20260508031044 64 224 9.6 14.8 0.00 0.00 0.00 77 1013.1
20260508030545 64 244 4.3 14.8 0.00 0.00 0.00 76 1013.1
20260508030044 64 229 11.3 14.8 0.00 0.00 0.00 76 1013.0
20260508024544 65 209 8.7 13.0 0.00 0.00 0.00 74 1012.6
20260508024043 66 193 5.2 13.0 0.00 0.00 0.00 73 1012.7
20260508023544 66 227 6.1 16.5 0.00 0.00 0.00 72 1012.7
20260508022543 67 242 8.7 14.8 0.00 0.00 0.00 71 1012.4
20260508022043 67 252 8.7 13.0 0.00 0.00 0.00 70 1012.4
20260508021543 67 271 7.8 13.0 0.00 0.00 0.00 70 1012.4
20260508020042 68 183 3.5 13.9 0.00 0.00 0.00 68 1012.4
20260508015542 69 230 5.2 13.9 0.00 0.00 0.00 67 1012.2
20260508015042 69 198 5.2 13.0 0.00 0.00 0.00 67 1012.2
20260508014542 69 233 6.1 12.2 0.00 0.00 0.00 66 1012.1
20260508013042 70 259 9.6 12.2 0.00 0.00 0.00 65 1012.1
20260508012611 70 202 7.0 12.2 0.00 0.00 0.00 65 1012.1
20260508012041 70 288 10.4 14.8 0.00 0.00 0.00 64 1012.1
20260508011541 71 232 9.6 17.4 0.00 0.00 0.00 64 1012.1
20260508011041 71 288 9.6 17.4 0.00 0.00 0.00 63 1012.1
20260508010541 71 264 13.9 13.9 0.00 0.00 0.00 63 1012.2
20260508010110 72 208 8.7 15.6 0.00 0.00 0.00 62 1012.1
20260508005540 72 277 11.3 15.6 0.00 0.00 0.00 61 1011.9
20260508005040 73 207 7.8 15.6 0.00 0.00 0.00 60 1011.9
20260508004039 72 272 15.6 17.4 0.00 0.00 0.00 60 1011.8
20260508003110 73 234 13.9 16.5 0.00 0.00 0.00 60 1011.8
20260508002539 73 241 10.4 13.0 0.00 0.00 0.00 59 1011.9
20260508002109 73 238 7.0 12.2 0.00 0.00 0.00 60 1011.9
20260508001609 73 243 10.4 12.2 0.00 0.00 0.00 59 1011.8
20260508000538 73 253 7.8 20.9 0.00 0.00 0.00 59 1011.8
20260508000108 73 263 9.6 19.1 0.00 0.00 0.00 60 1011.9
20260507235609 73 247 4.3 19.1 0.00 0.00 0.00 60 1012.0
20260507235038 73 223 10.4 16.5 0.00 0.00 0.00 59 1011.9
20260507234608 74 240 10.4 20.9 0.00 0.00 0.00 59 1012.0
20260507234107 74 250 12.2 20.9 0.00 0.00 0.00 58 1012.0
20260507233608 75 246 8.7 15.6 0.00 0.00 0.00 57 1012.2
20260507233107 74 269 3.5 15.6 0.00 0.00 0.00 57 1012.0
20260507232612 75 236 9.6 16.5 0.00 0.00 0.00 57 1012.1
20260507232107 74 236 7.8 19.1 0.00 0.00 0.00 58 1012.0
20260507231607 74 229 13.0 19.1 0.00 0.00 0.00 57 1011.9
20260507231107 74 292 6.1 18.2 0.00 0.00 0.00 56 1011.9
20260507230607 75 239 9.6 18.2 0.00 0.00 0.00 56 1012.1
20260507225606 74 284 14.8 20.0 0.00 0.00 0.00 56 1012.0
20260507225107 74 286 13.9 20.0 0.00 0.00 0.00 56 1012.1
20260507224606 75 265 12.2 18.2 0.00 0.00 0.00 55 1012.1
20260507224106 75 258 5.2 18.2 0.00 0.00 0.00 55 1012.2
20260507223105 76 211 10.4 16.5 0.00 0.00 0.00 53 1012.3
20260507222606 76 214 8.7 16.5 0.00 0.00 0.00 53 1012.3
20260507222105 76 285 6.1 16.5 0.00 0.00 0.00 53 1012.3
20260507221105 75 270 7.0 16.5 0.00 0.00 0.00 54 1012.5
20260507220604 75 200 10.4 16.5 0.00 0.00 0.00 53 1012.6
20260507220104 75 205 7.0 17.4 0.00 0.00 0.00 54 1012.6
20260507215604 76 290 11.3 17.4 0.00 0.00 0.00 54 1012.6
20260507215104 76 273 9.6 15.6 0.00 0.00 0.00 54 1012.7
20260507214604 76 200 7.0 16.5 0.00 0.00 0.00 55 1012.8
20260507214104 75 268 8.7 16.5 0.00 0.00 0.00 54 1012.9
20260507213103 77 294 11.3 13.9 0.00 0.00 0.00 54 1013.0
20260507212603 76 201 7.8 20.0 0.00 0.00 0.00 56 1013.0
20260507211603 76 264 12.2 15.6 0.00 0.00 0.00 55 1013.0
20260507211103 76 238 8.7 15.6 0.00 0.00 0.00 55 1013.0
20260507210603 76 281 7.8 16.5 0.00 0.00 0.00 55 1013.0
20260507210103 76 211 4.3 16.5 0.00 0.00 0.00 55 1013.1
20260507205603 76 257 15.6 15.6 0.00 0.00 0.00 55 1013.2
20260507205102 76 183 6.1 14.8 0.00 0.00 0.00 55 1013.3
20260507204603 76 240 9.6 15.6 0.00 0.00 0.00 56 1013.3
20260507203602 76 245 3.5 15.6 0.00 0.00 0.00 54 1013.3
20260507203102 76 224 6.1 15.6 0.00 0.00 0.00 54 1013.2
20260507202101 76 282 12.2 15.6 0.00 0.00 0.00 52 1013.4
20260507201601 76 263 10.4 14.8 0.00 0.00 0.00 52 1013.4
20260507201101 76 297 11.3 14.8 0.00 0.00 0.00 52 1013.5
20260507195600 76 281 11.3 12.2 0.00 0.00 0.00 52 1013.8
20260507194601 76 255 7.8 12.2 0.00 0.00 0.00 53 1013.8
20260507194100 76 315 4.3 13.0 0.00 0.00 0.00 52 1013.8
20260507193600 76 260 9.6 13.0 0.00 0.00 0.00 53 1013.9
20260507192600 76 219 4.3 9.6 0.00 0.00 0.00 53 1014.0
20260507191600 75 298 4.3 8.7 0.00 0.00 0.00 53 1014.1
20260507191059 75 241 4.3 8.7 0.00 0.00 0.00 54 1014.1
20260507190559 75 252 3.5 10.4 0.00 0.00 0.00 53 1014.2
20260507185058 75 244 3.5 10.4 0.00 0.00 0.00 54 1014.5
20260507184559 75 303 1.7 10.4 0.00 0.00 0.00 55 1014.5
20260507184058 74 259 6.1 10.4 0.00 0.00 0.00 55 1014.5
20260507183558 75 341 5.2 7.8 0.00 0.00 0.00 55 1014.6
20260507182558 74 27 4.3 9.6 0.00 0.00 0.00 55 1014.5
20260507182057 74 185 2.6 9.6 0.00 0.00 0.00 56 1014.5
20260507181558 74 257 7.8 9.6 0.00 0.00 0.00 56 1014.5
20260507181057 74 320 2.6 8.7 0.00 0.00 0.00 56 1014.6
20260507180558 75 9 7.8 8.7 0.00 0.00 0.00 55 1014.7
20260507180057 74 20 2.6 7.0 0.00 0.00 0.00 56 1014.7
20260507175557 74 290 2.6 7.0 0.00 0.00 0.00 56 1014.8
20260507175057 73 5 2.6 7.0 0.00 0.00 0.00 57 1014.9
20260507174556 73 346 2.6 7.0 0.00 0.00 0.00 57 1014.9
20260507174056 72 139 1.7 4.3 0.00 0.00 0.00 58 1014.8
20260507173556 72 36 2.6 4.3 0.00 0.00 0.00 58 1014.8
20260507173056 72 67 3.5 4.3 0.00 0.00 0.00 59 1014.8
20260507171555 71 309 1.7 4.3 0.00 0.00 0.00 60 1014.9
20260507171055 71 5 0.9 4.3 0.00 0.00 0.00 61 1015.0
20260507170556 70 302 0.0 4.3 0.00 0.00 0.00 62 1015.0
20260507170055 70 345 2.6 5.2 0.00 0.00 0.00 63 1015.0
20260507165555 70 55 0.0 5.2 0.00 0.00 0.00 63 1015.0
20260507165055 70 68 1.7 5.2 0.00 0.00 0.00 65 1015.0
20260507164554 69 13 0.9 5.2 0.00 0.00 0.00 66 1015.0
20260507164055 69 296 2.6 3.5 0.00 0.00 0.00 65 1015.0
20260507162554 67 327 1.7 4.3 0.00 0.00 0.00 68 1015.2
20260507161553 67 76 1.7 3.5 0.00 0.00 0.00 68 1015.2
20260507161054 66 94 0.9 3.5 0.00 0.00 0.00 69 1015.1
20260507160553 66 67 0.0 2.6 0.00 0.00 0.00 69 1015.1
20260507160053 66 78 0.9 3.5 0.00 0.00 0.00 70 1015.1
20260507155553 65 94 0.9 3.5 0.00 0.00 0.00 71 1015.2
20260507154553 65 342 2.6 2.6 0.00 0.00 0.00 72 1015.3
20260507153552 64 59 2.6 3.5 0.00 0.00 0.00 72 1015.4
20260507153052 64 26 1.7 3.5 0.00 0.00 0.00 71 1015.4
20260507152552 65 81 1.7 2.6 0.00 0.00 0.00 71 1015.4
20260507152052 64 76 0.9 2.6 0.00 0.00 0.00 72 1015.5
20260507151552 64 115 0.9 1.7 0.00 0.00 0.00 73 1015.4
20260507150552 63 92 0.0 1.7 0.00 0.00 0.00 77 1015.3
20260507150051 62 66 0.0 1.7 0.00 0.00 0.00 77 1015.2
20260507145551 62 66 0.9 2.6 0.00 0.00 0.00 77 1015.4
20260507145051 61 63 1.7 2.6 0.00 0.00 0.00 77 1015.3
20260507144550 61 80 0.9 1.7 0.00 0.00 0.00 79 1015.3
20260507144050 61 115 0.0 0.9 0.00 0.00 0.00 80 1015.3
20260507143551 60 115 0.0 0.9 0.00 0.00 0.00 80 1015.2
20260507143050 60 115 0.0 0.9 0.00 0.00 0.00 81 1015.2
20260507142550 60 120 0.0 0.9 0.00 0.00 0.00 81 1015.2
20260507142051 60 37 0.9 0.9 0.00 0.00 0.00 83 1015.1
20260507141550 59 200 0.0 0.0 0.00 0.00 0.00 85 1015.1
20260507141050 59 200 0.0 0.0 0.00 0.00 0.00 86 1015.0
20260507140550 58 200 0.0 0.0 0.00 0.00 0.00 87 1015.1
20260507140049 57 329 0.0 0.0 0.00 0.00 0.00 89 1014.9
20260507135549 56 329 0.0 0.0 0.00 0.00 0.00 89 1015.0
20260507135049 55 269 0.0 0.0 0.00 0.00 0.00 88 1014.9
20260507134549 55 269 0.0 0.0 0.00 0.00 0.00 88 1014.8
20260507134049 55 269 0.0 0.0 0.00 0.00 0.00 88 1014.8
20260507133548 54 269 0.0 0.0 0.00 0.00 0.00 88 1014.6
20260507133048 54 269 0.0 0.0 0.00 0.00 0.00 87 1014.6
20260507132048 54 172 0.0 0.0 0.00 0.00 0.00 87 1014.5
20260507131548 54 172 0.0 0.0 0.00 0.00 0.00 87 1014.6
20260507130047 54 261 0.0 0.0 0.00 0.00 0.00 87 1014.4
20260507125547 54 261 0.0 0.9 0.00 0.00 0.00 86 1014.5
20260507125047 54 237 0.0 0.9 0.00 0.00 0.00 86 1014.5
20260507124548 54 178 0.0 0.0 0.00 0.00 0.00 86 1014.5
20260507124047 55 178 0.0 0.0 0.00 0.00 0.00 85 1014.6
20260507123548 55 178 0.0 0.0 0.00 0.00 0.00 86 1014.5
20260507123047 55 178 0.0 0.9 0.00 0.00 0.00 86 1014.5
20260507122546 55 178 0.0 1.7 0.00 0.00 0.00 86 1014.5
20260507122047 55 178 0.0 1.7 0.00 0.00 0.00 86 1014.5
20260507121546 55 178 0.9 2.6 0.00 0.00 0.00 85 1014.5
20260507121046 55 178 1.7 2.6 0.00 0.00 0.00 85 1014.6
20260507120546 55 173 0.0 2.6 0.00 0.00 0.00 85 1014.7
20260507120045 55 173 0.9 2.6 0.00 0.00 0.00 84 1014.7
20260507115045 55 173 0.0 1.7 0.00 0.00 0.00 84 1014.8
20260507114545 55 173 0.9 1.7 0.00 0.00 0.00 85 1014.7
20260507114045 55 173 0.9 1.7 0.00 0.00 0.00 85 1014.7
20260507113545 55 173 0.0 1.7 0.00 0.00 0.00 84 1014.7
20260507113045 55 173 0.9 1.7 0.00 0.00 0.00 84 1014.7
20260507111544 55 185 0.0 1.7 0.00 0.00 0.00 85 1014.9
20260507111044 55 190 0.0 1.7 0.00 0.00 0.00 85 1014.9
20260507110544 55 190 0.0 1.7 0.00 0.00 0.00 85 1014.9
20260507110044 55 190 1.7 1.7 0.00 0.00 0.00 85 1014.9
20260507105543 55 190 0.0 0.0 0.00 0.00 0.00 84 1015.0
20260507105043 55 190 0.0 0.0 0.00 0.00 0.00 84 1015.1
20260507104543 55 190 0.0 0.0 0.00 0.00 0.00 84 1015.1
20260507103042 55 190 0.0 0.0 0.00 0.00 0.00 82 1015.1
20260507102542 56 190 0.0 0.0 0.00 0.00 0.00 82 1015.1
20260507102043 56 190 0.0 0.0 0.00 0.00 0.00 82 1015.1
20260507101542 56 190 0.0 0.0 0.00 0.00 0.00 81 1015.2
20260507101042 56 190 0.0 0.0 0.00 0.00 0.00 81 1015.2
20260507100042 56 190 0.0 0.0 0.00 0.00 0.00 81 1015.3
20260507095542 56 190 0.0 2.6 0.00 0.00 0.00 80 1015.3
20260507095041 56 190 0.0 2.6 0.00 0.00 0.00 80 1015.3
20260507094541 56 190 1.7 1.7 0.00 0.00 0.00 80 1015.3
20260507093041 56 190 0.0 0.0 0.00 0.00 0.00 79 1015.6
20260507092540 56 190 0.0 1.7 0.00 0.00 0.00 78 1015.6
20260507091540 56 190 1.7 2.6 0.00 0.00 0.00 78 1015.6
20260507091040 57 190 1.7 2.6 0.00 0.00 0.00 78 1015.8
20260507090540 56 190 0.9 2.6 0.00 0.00 0.00 77 1015.6
20260507090040 56 190 0.9 2.6 0.00 0.00 0.00 78 1015.7
20260507085540 56 192 1.7 2.6 0.00 0.00 0.00 78 1015.7
20260507084539 56 203 1.7 2.6 0.00 0.00 0.00 78 1015.9
20260507084039 56 203 0.0 0.0 0.00 0.00 0.00 78 1016.0
20260507083539 56 203 0.0 0.0 0.00 0.00 0.00 78 1015.9
20260507083039 57 203 0.0 0.0 0.00 0.00 0.00 78 1016.0
20260507082539 57 203 0.0 0.0 0.00 0.00 0.00 78 1015.9
20260507082038 57 203 0.0 0.0 0.00 0.00 0.00 78 1016.0
20260507081538 57 203 0.0 0.0 0.00 0.00 0.00 78 1016.0
20260507081038 57 203 0.0 0.0 0.00 0.00 0.00 78 1016.0
20260507080538 58 203 0.0 3.5 0.00 0.00 0.00 78 1016.2
20260507075537 57 204 3.5 3.5 0.00 0.00 0.00 80 1016.1
20260507075038 57 199 3.5 3.5 0.00 0.00 0.00 80 1016.0
20260507074037 57 185 0.0 2.6 0.00 0.00 0.00 80 1016.0
20260507073607 57 185 0.0 2.6 0.00 0.00 0.00 80 1016.0
20260507072536 56 207 0.9 2.6 0.00 0.00 0.00 80 1016.1
20260507072107 56 207 1.7 2.6 0.00 0.00 0.00 80 1016.1
20260507071606 57 207 0.9 2.6 0.00 0.00 0.00 80 1016.1
20260507071106 57 207 0.0 1.7 0.00 0.00 0.00 80 1016.3
20260507070606 57 207 0.0 1.7 0.00 0.00 0.00 79 1016.2
20260507070106 57 207 0.9 1.7 0.00 0.00 0.00 79 1016.2
20260507065606 57 207 0.9 1.7 0.00 0.00 0.00 79 1016.2
20260507064606 57 252 0.9 0.9 0.00 0.00 0.00 78 1016.4
20260507063606 58 221 0.0 1.7 0.00 0.00 0.00 77 1016.4
20260507063105 58 221 0.9 2.6 0.00 0.00 0.00 77 1016.4
20260507062605 58 221 1.7 2.6 0.00 0.00 0.00 76 1016.4
20260507062104 59 177 2.6 2.6 0.00 0.00 0.00 76 1016.3
20260507061105 59 101 0.0 2.6 0.00 0.00 0.00 76 1016.4
20260507060604 59 101 1.7 4.3 0.00 0.00 0.00 76 1016.3
20260507055104 59 191 3.5 7.0 0.00 0.00 0.00 76 1016.1
20260507054103 59 242 3.5 7.0 0.00 0.00 0.00 75 1016.2
20260507053604 59 223 1.7 7.0 0.00 0.00 0.00 75 1016.2
20260507053103 59 229 3.5 7.0 0.00 0.00 0.00 75 1016.2
20260507052603 60 240 3.5 5.2 0.00 0.00 0.00 74 1016.1
20260507052103 60 201 3.5 6.1 0.00 0.00 0.00 74 1016.1
20260507051103 61 240 2.6 8.7 0.00 0.00 0.00 73 1016.1
20260507050602 61 191 5.2 8.7 0.00 0.00 0.00 73 1016.1
20260507045602 61 205 3.5 7.8 0.00 0.00 0.00 73 1015.9
20260507045103 61 230 3.5 7.8 0.00 0.00 0.00 73 1015.9
20260507044601 61 193 3.5 8.7 0.00 0.00 0.00 73 1015.9
20260507044103 61 270 3.5 9.6 0.00 0.00 0.00 73 1015.9
20260507043601 61 298 3.5 10.4 0.00 0.00 0.00 73 1015.9
20260507043102 61 272 3.5 10.4 0.00 0.00 0.00 72 1015.8
20260507042601 61 274 2.6 8.7 0.00 0.00 0.00 72 1015.8
20260507041601 62 225 2.6 9.6 0.00 0.00 0.00 71 1015.8
20260507041101 62 254 2.6 9.6 0.00 0.00 0.00 72 1015.8
20260507040101 62 223 5.2 7.0 0.00 0.00 0.00 72 1015.7
20260507035600 62 243 3.5 8.7 0.00 0.00 0.00 72 1015.5
20260507035100 62 246 3.5 8.7 0.00 0.00 0.00 71 1015.5
20260507034600 63 223 7.0 8.7 0.00 0.00 0.00 71 1015.5
20260507034059 63 225 5.2 9.6 0.00 0.00 0.00 71 1015.5